TimeEDT,TemperatureF,Dew PointF,Humidity,Sea Level PressureIn,VisibilityMPH,Wind Direction,Wind SpeedMPH,Gust SpeedMPH,PrecipitationIn,Events,Conditions,WindDirDegrees,DateUTC
12:53 AM,64.0,60.1,87,30.15,10.0,East,3.5,-,N/A,,Scattered Clouds,90,2013-04-10 04:53:00
1:53 AM,63.0,60.1,90,30.13,10.0,East,4.6,-,N/A,,Mostly Cloudy,80,2013-04-10 05:53:00
2:53 AM,62.1,60.1,93,30.10,10.0,East,4.6,-,N/A,,Scattered Clouds,90,2013-04-10 06:53:00
3:53 AM,61.0,60.1,97,30.10,10.0,Calm,Calm,-,N/A,,Scattered Clouds,0,2013-04-10 07:53:00
4:53 AM,61.0,60.1,97,30.10,10.0,Calm,Calm,-,N/A,,Partly Cloudy,0,2013-04-10 08:53:00
5:53 AM,61.0,59.0,93,30.09,10.0,Calm,Calm,-,N/A,Fog,Patches of Fog,0,2013-04-10 09:53:00
6:53 AM,61.0,60.1,97,30.09,10.0,East,3.5,-,N/A,Fog,Patches of Fog,80,2013-04-10 10:53:00
7:53 AM,64.9,63.0,93,30.10,10.0,Calm,Calm,-,N/A,,Scattered Clouds,0,2013-04-10 11:53:00
8:53 AM,70.0,64.9,84,30.11,10.0,East,4.6,-,N/A,,Partly Cloudy,90,2013-04-10 12:53:00
9:53 AM,75.9,66.0,71,30.11,10.0,SSE,9.2,-,N/A,,Scattered Clouds,150,2013-04-10 13:53:00
10:53 AM,78.1,64.9,64,30.11,10.0,South,9.2,-,N/A,,Scattered Clouds,170,2013-04-10 14:53:00
11:53 AM,81.0,63.0,54,30.11,10.0,Variable,6.9,-,N/A,,Scattered Clouds,0,2013-04-10 15:53:00
12:53 PM,82.9,61.0,47,30.09,10.0,Variable,6.9,-,N/A,,Scattered Clouds,0,2013-04-10 16:53:00
1:53 PM,84.9,60.1,43,30.07,10.0,Variable,5.8,-,N/A,,Mostly Cloudy,0,2013-04-10 17:53:00
2:53 PM,88.0,61.0,40,30.05,10.0,ESE,6.9,-,N/A,,Mostly Cloudy,120,2013-04-10 18:53:00
3:53 PM,86.0,64.0,48,30.04,10.0,ENE,8.1,-,N/A,,Scattered Clouds,70,2013-04-10 19:53:00
4:53 PM,84.9,64.9,51,30.01,10.0,ESE,15.0,-,N/A,,Scattered Clouds,110,2013-04-10 20:53:00
5:53 PM,82.9,66.0,56,30.01,10.0,East,15.0,-,N/A,,Scattered Clouds,100,2013-04-10 21:53:00
6:53 PM,80.1,66.9,64,30.01,10.0,ESE,15.0,-,N/A,,Scattered Clouds,110,2013-04-10 22:53:00
7:53 PM,75.9,68.0,76,30.01,10.0,ESE,13.8,-,N/A,,Mostly Cloudy,110,2013-04-10 23:53:00
8:53 PM,75.0,68.0,79,30.03,10.0,ESE,10.4,-,N/A,,Scattered Clouds,120,2013-04-11 00:53:00
9:53 PM,73.0,69.1,87,30.04,10.0,ESE,10.4,-,N/A,,Partly Cloudy,110,2013-04-11 01:53:00
10:53 PM,73.0,69.1,87,30.03,10.0,ESE,8.1,-,N/A,,Scattered Clouds,110,2013-04-11 02:53:00
11:53 PM,73.0,70.0,90,30.03,10.0,SE,9.2,-,N/A,,Mostly Cloudy,130,2013-04-11 03:53:00